Time,TemperatureF,DewpointF,PressureIn,WindDirection,WindDirectionDegrees,WindSpeedMPH,WindSpeedGustMPH,Humidity,HourlyPrecipIn,Conditions,Clouds,dailyrainin,SoftwareType,DateUTC
2013-03-10 00:00:00,65.4,55.0,30.20,NE,38,4.0,4.0,69,0.00,,BKN046,0.00,VWS V14.01,2013-03-10 05:00:00,
2013-03-10 00:05:00,65.4,55.0,30.19,ENE,69,3.0,6.0,69,0.00,,BKN046,0.00,VWS V14.01,2013-03-10 05:05:00,
2013-03-10 00:10:00,65.5,55.1,30.20,ENE,60,4.0,7.0,69,0.00,,BKN046,0.00,VWS V14.01,2013-03-10 05:10:00,
2013-03-10 00:15:00,65.5,55.1,30.19,NE,38,5.0,7.0,69,0.00,,BKN046,0.00,VWS V14.01,2013-03-10 05:15:00,
2013-03-10 00:20:00,65.5,55.1,30.19,ENE,60,4.0,9.0,69,0.00,,BKN046,0.00,VWS V14.01,2013-03-10 05:20:00,
2013-03-10 00:25:00,65.5,55.1,30.19,NE,39,5.0,9.0,69,0.00,,BKN046,0.00,VWS V14.01,2013-03-10 05:25:00,
2013-03-10 00:30:00,65.4,55.4,30.18,NE,38,3.0,9.0,70,0.00,,BKN046,0.00,VWS V14.01,2013-03-10 05:30:00,
2013-03-10 00:35:00,65.4,54.6,30.19,NE,54,0.0,9.0,68,0.00,,BKN046,0.00,VWS V14.01,2013-03-10 05:35:00,
2013-03-10 00:40:00,65.3,54.9,30.19,NE,43,9.0,9.0,69,0.00,,BKN046,0.00,VWS V14.01,2013-03-10 05:40:00,
2013-03-10 00:45:00,65.2,54.8,30.18,ENE,61,2.0,9.0,69,0.00,,BKN046,0.00,VWS V14.01,2013-03-10 05:45:00,
2013-03-10 00:50:00,65.2,54.8,30.19,ENE,60,2.0,9.0,69,0.00,,BKN046,0.00,VWS V14.01,2013-03-10 05:50:00,
2013-03-10 00:55:00,65.1,54.7,30.19,NE,51,2.0,9.0,69,0.00,,BKN046,0.00,VWS V14.01,2013-03-10 05:55:00,
2013-03-10 01:00:00,65.0,55.0,30.18,NNE,13,2.0,3.0,70,0.00,,FEW046,0.00,VWS V14.01,2013-03-10 06:00:00,
2013-03-10 01:05:00,65.0,55.0,30.18,NE,48,2.0,7.0,70,0.00,,FEW046,0.00,VWS V14.01,2013-03-10 06:05:00,
2013-03-10 01:10:00,64.9,54.9,30.18,ENE,68,5.0,7.0,70,0.00,,FEW046,0.00,VWS V14.01,2013-03-10 06:10:00,
2013-03-10 01:15:00,64.9,54.9,30.18,NNE,29,0.0,7.0,70,0.00,,FEW046,0.00,VWS V14.01,2013-03-10 06:15:00,
2013-03-10 01:20:00,64.9,54.9,30.18,NNE,20,4.0,7.0,70,0.00,,FEW046,0.00,VWS V14.01,2013-03-10 06:20:00,
2013-03-10 01:25:00,64.9,54.9,30.18,NE,34,3.0,7.0,70,0.00,,FEW046,0.00,VWS V14.01,2013-03-10 06:25:00,
2013-03-10 01:30:00,64.9,55.3,30.17,NE,36,2.0,7.0,71,0.00,,FEW046,0.00,VWS V14.01,2013-03-10 06:30:00,
2013-03-10 01:35:00,64.8,55.2,30.17,NE,36,0.0,7.0,71,0.00,,FEW046,0.00,VWS V14.01,2013-03-10 06:35:00,
2013-03-10 01:40:00,64.7,55.1,30.16,NE,48,1.0,7.0,71,0.00,,FEW046,0.00,VWS V14.01,2013-03-10 06:40:00,
2013-03-10 01:45:00,64.7,55.5,30.16,NE,47,0.0,7.0,72,0.00,,FEW046,0.00,VWS V14.01,2013-03-10 06:45:00,
2013-03-10 01:50:00,64.6,55.4,30.15,NE,46,0.0,7.0,72,0.00,,FEW046,0.00,VWS V14.01,2013-03-10 06:50:00,
2013-03-10 01:55:00,64.4,55.6,30.15,NE,48,2.0,7.0,73,0.00,,FEW046,0.00,VWS V14.01,2013-03-10 06:55:00,
2013-03-10 03:00:00,64.3,55.1,30.15,NE,48,0.0,1.0,72,0.00,,FEW046,0.00,VWS V14.01,2013-03-10 07:00:00,
2013-03-10 03:05:00,64.3,55.5,30.15,NE,46,0.0,1.0,73,0.00,,FEW044,0.00,VWS V14.01,2013-03-10 07:05:00,
2013-03-10 03:10:00,64.3,55.5,30.14,NE,46,0.0,1.0,73,0.00,,FEW044,0.00,VWS V14.01,2013-03-10 07:10:00,
2013-03-10 03:15:00,64.3,55.5,30.15,NE,47,0.0,1.0,73,0.00,,FEW044,0.00,VWS V14.01,2013-03-10 07:15:00,
2013-03-10 03:20:00,64.3,55.5,30.15,NE,47,0.0,1.0,73,0.00,,FEW044,0.00,VWS V14.01,2013-03-10 07:20:00,
2013-03-10 03:25:00,64.2,55.4,30.14,NE,48,2.0,3.0,73,0.00,,FEW044,0.00,VWS V14.01,2013-03-10 07:25:00,
2013-03-10 03:30:00,64.2,55.4,30.14,NE,48,0.0,3.0,73,0.00,,FEW044,0.00,VWS V14.01,2013-03-10 07:30:00,
2013-03-10 03:35:00,64.1,55.7,30.14,NE,46,0.0,3.0,74,0.00,,FEW044,0.00,VWS V14.01,2013-03-10 07:35:00,
2013-03-10 03:40:00,64.1,55.7,30.14,NE,47,0.0,3.0,74,0.00,,FEW044,0.00,VWS V14.01,2013-03-10 07:40:00,
2013-03-10 03:45:00,64.0,55.9,30.14,NE,46,0.0,3.0,75,0.00,,FEW044,0.00,VWS V14.01,2013-03-10 07:45:00,
2013-03-10 03:50:00,64.0,55.9,30.13,NE,49,0.0,3.0,75,0.00,,FEW044,0.00,VWS V14.01,2013-03-10 07:50:00,
2013-03-10 03:55:00,64.0,55.9,30.14,NE,47,0.0,3.0,75,0.00,,FEW044,0.00,VWS V14.01,2013-03-10 07:55:00,
2013-03-10 04:00:00,64.0,55.9,30.14,NE,47,0.0,0.0,75,0.00,,FEW044,0.00,VWS V14.01,2013-03-10 08:00:00,
2013-03-10 04:05:00,64.2,56.1,30.13,NE,54,4.0,5.0,75,0.00,,OVC047,0.00,VWS V14.01,2013-03-10 08:05:00,
2013-03-10 04:10:00,64.3,56.2,30.13,NE,45,4.0,6.0,75,0.00,,OVC047,0.00,VWS V14.01,2013-03-10 08:10:00,
2013-03-10 04:15:00,64.4,56.3,30.13,ENE,60,2.0,6.0,75,0.00,,OVC047,0.00,VWS V14.01,2013-03-10 08:15:00,
2013-03-10 04:20:00,64.6,56.1,30.13,NE,55,1.0,6.0,74,0.00,,OVC047,0.00,VWS V14.01,2013-03-10 08:20:00,
2013-03-10 04:25:00,64.8,56.3,30.13,ENE,77,2.0,6.0,74,0.00,,OVC047,0.00,VWS V14.01,2013-03-10 08:25:00,
2013-03-10 04:30:00,65.0,56.2,30.13,East,87,4.0,9.0,73,0.00,,OVC047,0.00,VWS V14.01,2013-03-10 08:30:00,
2013-03-10 04:35:00,65.3,56.0,30.13,ENE,63,2.0,9.0,72,0.00,,OVC047,0.00,VWS V14.01,2013-03-10 08:35:00,
2013-03-10 04:40:00,65.6,56.0,30.13,East,99,2.0,9.0,71,0.00,,OVC047,0.00,VWS V14.01,2013-03-10 08:40:00,
2013-03-10 04:45:00,65.7,56.0,30.13,ENE,72,6.0,9.0,71,0.00,,OVC047,0.00,VWS V14.01,2013-03-10 08:45:00,
2013-03-10 04:50:00,65.9,56.2,30.12,NE,48,3.0,9.0,71,0.00,,OVC047,0.00,VWS V14.01,2013-03-10 08:50:00,
2013-03-10 04:55:00,65.9,56.2,30.13,East,79,3.0,9.0,71,0.00,,OVC047,0.00,VWS V14.01,2013-03-10 08:55:00,
2013-03-10 05:00:00,66.0,56.0,30.12,East,93,0.0,4.0,70,0.00,,OVC047,0.00,VWS V14.01,2013-03-10 09:00:00,
2013-03-10 05:05:00,66.1,55.7,30.14,ESE,102,3.0,6.0,69,0.00,,FEW049,0.00,VWS V14.01,2013-03-10 09:05:00,
2013-03-10 05:10:00,66.0,55.5,30.14,ESE,102,3.0,7.0,69,0.00,,FEW049,0.00,VWS V14.01,2013-03-10 09:10:00,
2013-03-10 05:15:00,65.9,55.5,30.14,East,97,3.0,7.0,69,0.00,,FEW049,0.00,VWS V14.01,2013-03-10 09:15:00,
2013-03-10 05:20:00,65.8,55.4,30.13,ESE,106,2.0,7.0,69,0.00,,FEW049,0.00,VWS V14.01,2013-03-10 09:20:00,
2013-03-10 05:25:00,65.6,55.2,30.14,SE,131,3.0,7.0,69,0.00,,FEW049,0.00,VWS V14.01,2013-03-10 09:25:00,
2013-03-10 05:30:00,65.6,55.2,30.14,SE,127,0.0,7.0,69,0.00,,FEW049,0.00,VWS V14.01,2013-03-10 09:30:00,
2013-03-10 05:35:00,65.4,55.0,30.14,SE,127,0.0,7.0,69,0.00,,FEW049,0.00,VWS V14.01,2013-03-10 09:35:00,
2013-03-10 05:40:00,65.3,55.3,30.14,SE,127,0.0,7.0,70,0.00,,FEW049,0.00,VWS V14.01,2013-03-10 09:40:00,
2013-03-10 05:45:00,65.2,55.2,30.14,SE,127,0.0,7.0,70,0.00,,FEW049,0.00,VWS V14.01,2013-03-10 09:45:00,
2013-03-10 05:50:00,65.1,55.1,30.14,SE,127,0.0,7.0,70,0.00,,FEW049,0.00,VWS V14.01,2013-03-10 09:50:00,
2013-03-10 05:55:00,65.0,55.0,30.13,ESE,105,0.0,7.0,70,0.00,,FEW049,0.00,VWS V14.01,2013-03-10 09:55:00,
2013-03-10 06:00:00,64.9,55.3,30.14,ESE,105,2.0,2.0,71,0.00,,FEW049,0.00,VWS V14.01,2013-03-10 10:00:00,
2013-03-10 06:05:00,64.8,55.2,30.14,East,79,0.0,4.0,71,0.00,,CLR,0.00,VWS V14.01,2013-03-10 10:05:00,
2013-03-10 06:10:00,64.7,55.1,30.14,East,84,0.0,4.0,71,0.00,,CLR,0.00,VWS V14.01,2013-03-10 10:10:00,
2013-03-10 06:15:00,64.6,55.0,30.14,East,84,0.0,4.0,71,0.00,,CLR,0.00,VWS V14.01,2013-03-10 10:15:00,
2013-03-10 06:20:00,64.5,54.5,30.14,East,84,0.0,4.0,70,0.00,,CLR,0.00,VWS V14.01,2013-03-10 10:20:00,
2013-03-10 06:25:00,64.4,54.8,30.14,East,84,0.0,4.0,71,0.00,,CLR,0.00,VWS V14.01,2013-03-10 10:25:00,
2013-03-10 06:30:00,64.4,54.8,30.14,East,84,0.0,4.0,71,0.00,,CLR,0.00,VWS V14.01,2013-03-10 10:30:00,
2013-03-10 06:35:00,64.4,54.8,30.15,East,84,0.0,4.0,71,0.00,,CLR,0.00,VWS V14.01,2013-03-10 10:35:00,
2013-03-10 06:40:00,64.3,54.7,30.14,East,83,0.0,4.0,71,0.00,,CLR,0.00,VWS V14.01,2013-03-10 10:40:00,
2013-03-10 06:45:00,64.2,55.0,30.15,East,81,0.0,4.0,72,0.00,,CLR,0.00,VWS V14.01,2013-03-10 10:45:00,
2013-03-10 06:50:00,63.9,55.1,30.15,East,80,0.0,4.0,73,0.00,,CLR,0.00,VWS V14.01,2013-03-10 10:50:00,
2013-03-10 06:55:00,63.7,54.9,30.15,East,80,0.0,4.0,73,0.00,,CLR,0.00,VWS V14.01,2013-03-10 10:55:00,
2013-03-10 07:00:00,63.5,55.1,30.15,East,80,0.0,0.0,74,0.00,,CLR,0.00,VWS V14.01,2013-03-10 11:00:00,
2013-03-10 07:05:00,63.2,54.8,30.15,East,81,0.0,0.0,74,0.00,,CLR,0.00,VWS V14.01,2013-03-10 11:05:00,
2013-03-10 07:10:00,63.0,54.6,30.15,East,80,0.0,0.0,74,0.00,,CLR,0.00,VWS V14.01,2013-03-10 11:10:00,
2013-03-10 07:15:00,62.8,54.8,30.15,East,80,0.0,0.0,75,0.00,,CLR,0.00,VWS V14.01,2013-03-10 11:15:00,
2013-03-10 07:20:00,62.6,54.2,30.14,East,81,0.0,0.0,74,0.00,,CLR,0.00,VWS V14.01,2013-03-10 11:20:00,
2013-03-10 07:25:00,62.5,54.5,30.14,East,79,0.0,0.0,75,0.00,,CLR,0.00,VWS V14.01,2013-03-10 11:25:00,
2013-03-10 07:30:00,62.3,54.3,30.14,East,80,0.0,0.0,75,0.00,,CLR,0.00,VWS V14.01,2013-03-10 11:30:00,
2013-03-10 07:35:00,62.1,54.1,30.15,East,83,0.0,0.0,75,0.00,,CLR,0.00,VWS V14.01,2013-03-10 11:35:00,
2013-03-10 07:40:00,61.9,53.9,30.15,East,83,0.0,0.0,75,0.00,,CLR,0.00,VWS V14.01,2013-03-10 11:40:00,
2013-03-10 07:45:00,61.7,53.7,30.15,East,83,0.0,0.0,75,0.00,,CLR,0.00,VWS V14.01,2013-03-10 11:45:00,
2013-03-10 07:50:00,61.5,53.9,30.15,East,82,0.0,0.0,76,0.00,,CLR,0.00,VWS V14.01,2013-03-10 11:50:00,
2013-03-10 07:55:00,61.3,54.4,30.15,East,80,0.0,0.0,78,0.00,,CLR,0.00,VWS V14.01,2013-03-10 11:55:00,
2013-03-10 08:00:00,61.0,54.1,30.15,East,82,0.0,0.0,78,0.00,,CLR,0.00,VWS V14.01,2013-03-10 12:00:00,
2013-03-10 08:05:00,60.8,54.3,30.15,East,81,0.0,0.0,79,0.00,,OVC050,0.00,VWS V14.01,2013-03-10 12:05:00,
2013-03-10 08:10:00,60.7,54.5,30.16,East,80,0.0,0.0,80,0.00,,OVC050,0.00,VWS V14.01,2013-03-10 12:10:00,
2013-03-10 08:15:00,60.5,54.3,30.15,East,81,0.0,0.0,80,0.00,,OVC050,0.00,VWS V14.01,2013-03-10 12:15:00,
2013-03-10 08:20:00,60.4,54.5,30.16,East,82,0.0,0.0,81,0.00,,OVC050,0.00,VWS V14.01,2013-03-10 12:20:00,
2013-03-10 08:25:00,60.4,54.5,30.16,NNW,333,0.0,0.0,81,0.00,,OVC050,0.00,VWS V14.01,2013-03-10 12:25:00,
2013-03-10 08:30:00,60.5,55.0,30.16,SE,127,0.0,0.0,82,0.00,,OVC050,0.00,VWS V14.01,2013-03-10 12:30:00,
2013-03-10 08:35:00,60.5,55.3,30.16,SE,127,0.0,0.0,83,0.00,,OVC050,0.00,VWS V14.01,2013-03-10 12:35:00,
2013-03-10 08:40:00,60.7,55.5,30.17,SE,127,0.0,0.0,83,0.00,,OVC050,0.00,VWS V14.01,2013-03-10 12:40:00,
2013-03-10 08:45:00,60.8,55.9,30.16,SE,127,0.0,0.0,84,0.00,,OVC050,0.00,VWS V14.01,2013-03-10 12:45:00,
2013-03-10 08:50:00,60.9,56.0,30.17,SE,127,0.0,0.0,84,0.00,,OVC050,0.00,VWS V14.01,2013-03-10 12:50:00,
2013-03-10 08:55:00,61.1,56.6,30.17,SE,127,0.0,0.0,85,0.00,,OVC050,0.00,VWS V14.01,2013-03-10 12:55:00,
2013-03-10 09:00:00,61.3,57.1,30.18,SE,127,0.0,0.0,86,0.00,,OVC050,0.00,VWS V14.01,2013-03-10 13:00:00,
2013-03-10 09:05:00,61.5,57.9,30.17,ESE,122,0.0,0.0,88,0.00,,OVC050,0.00,VWS V14.01,2013-03-10 13:05:00,
2013-03-10 09:10:00,62.0,58.1,30.17,East,94,2.0,6.0,87,0.00,,OVC050,0.00,VWS V14.01,2013-03-10 13:10:00,
2013-03-10 09:16:00,63.2,58.3,30.17,East,85,3.0,7.0,84,0.00,,OVC050,0.00,VWS V14.01,2013-03-10 13:16:00,
2013-03-10 09:21:00,64.7,58.4,30.17,ENE,72,4.0,9.0,80,0.00,,OVC050,0.00,VWS V14.01,2013-03-10 13:21:00,
2013-03-10 09:26:00,66.2,58.0,30.17,ESE,102,5.0,9.0,75,0.00,,OVC050,0.00,VWS V14.01,2013-03-10 13:26:00,
2013-03-10 09:31:00,67.4,57.7,30.18,East,86,2.0,10.0,71,0.00,,OVC050,0.00,VWS V14.01,2013-03-10 13:31:00,
2013-03-10 09:36:00,68.2,58.5,30.17,ENE,62,6.0,10.0,71,0.00,,OVC050,0.00,VWS V14.01,2013-03-10 13:36:00,
2013-03-10 09:41:00,68.5,58.3,30.18,East,80,5.0,10.0,70,0.00,,OVC050,0.00,VWS V14.01,2013-03-10 13:41:00,
2013-03-10 09:46:00,68.8,58.2,30.18,ENE,65,4.0,10.0,69,0.00,,OVC050,0.00,VWS V14.01,2013-03-10 13:46:00,
2013-03-10 09:51:00,69.3,58.3,30.18,East,81,7.0,10.0,68,0.00,,OVC050,0.00,VWS V14.01,2013-03-10 13:51:00,
2013-03-10 09:56:00,69.8,58.8,30.19,NE,44,5.0,11.0,68,0.00,,OVC050,0.00,VWS V14.01,2013-03-10 13:56:00,
2013-03-10 10:01:00,70.4,58.5,30.18,ENE,61,5.0,8.0,66,0.00,,SCT050,0.00,VWS V14.01,2013-03-10 14:01:00,
2013-03-10 10:06:00,70.5,58.6,30.19,NE,55,8.0,12.0,66,0.00,,SCT050,0.00,VWS V14.01,2013-03-10 14:06:00,
2013-03-10 10:11:00,70.4,59.3,30.18,ENE,62,3.0,12.0,68,0.00,,SCT050,0.00,VWS V14.01,2013-03-10 14:11:00,
2013-03-10 10:16:00,70.2,58.3,30.19,East,95,8.0,12.0,66,0.00,,SCT050,0.00,VWS V14.01,2013-03-10 14:16:00,
2013-03-10 10:21:00,70.1,58.7,30.19,ENE,61,2.0,12.0,67,0.00,,SCT050,0.00,VWS V14.01,2013-03-10 14:21:00,
2013-03-10 10:26:00,69.8,59.2,30.20,NE,54,4.0,12.0,69,0.00,,SCT050,0.00,VWS V14.01,2013-03-10 14:26:00,
2013-03-10 10:31:00,69.6,58.2,30.19,NE,49,6.0,12.0,67,0.00,,SCT050,0.00,VWS V14.01,2013-03-10 14:31:00,
2013-03-10 10:36:00,69.6,58.2,30.19,East,88,5.0,12.0,67,0.00,,SCT050,0.00,VWS V14.01,2013-03-10 14:36:00,
2013-03-10 10:41:00,69.6,58.2,30.19,ENE,58,2.0,12.0,67,0.00,,SCT050,0.00,VWS V14.01,2013-03-10 14:41:00,
2013-03-10 10:46:00,69.8,58.4,30.18,NE,49,3.0,12.0,67,0.00,,SCT050,0.00,VWS V14.01,2013-03-10 14:46:00,
2013-03-10 10:51:00,69.9,58.5,30.19,ENE,74,6.0,12.0,67,0.00,,SCT050,0.00,VWS V14.01,2013-03-10 14:51:00,
2013-03-10 10:56:00,70.1,58.2,30.18,ENE,65,3.0,12.0,66,0.00,,SCT050,0.00,VWS V14.01,2013-03-10 14:56:00,
2013-03-10 11:01:00,70.1,58.2,30.18,NE,41,5.0,9.0,66,0.00,,OVC050,0.00,VWS V14.01,2013-03-10 15:01:00,
2013-03-10 11:06:00,69.9,58.5,30.19,ENE,78,4.0,11.0,67,0.00,,OVC050,0.00,VWS V14.01,2013-03-10 15:06:00,
2013-03-10 11:11:00,69.8,58.4,30.19,NNE,32,6.0,11.0,67,0.00,,OVC050,0.00,VWS V14.01,2013-03-10 15:11:00,
2013-03-10 11:16:00,69.7,58.3,30.19,NE,56,3.0,11.0,67,0.00,,OVC050,0.00,VWS V14.01,2013-03-10 15:16:00,
2013-03-10 11:21:00,69.6,58.2,30.19,East,93,4.0,11.0,67,0.00,,OVC050,0.00,VWS V14.01,2013-03-10 15:21:00,
2013-03-10 11:26:00,69.5,58.1,30.20,ENE,75,4.0,11.0,67,0.00,,OVC050,0.00,VWS V14.01,2013-03-10 15:26:00,
2013-03-10 11:31:00,69.6,59.0,30.19,ENE,65,4.0,11.0,69,0.00,,OVC050,0.00,VWS V14.01,2013-03-10 15:31:00,
2013-03-10 11:36:00,69.7,59.1,30.19,ENE,61,6.0,11.0,69,0.00,,OVC050,0.00,VWS V14.01,2013-03-10 15:36:00,
2013-03-10 11:41:00,69.8,58.8,30.19,ENE,61,5.0,11.0,68,0.00,,OVC050,0.00,VWS V14.01,2013-03-10 15:41:00,
2013-03-10 11:46:00,70.2,59.6,30.19,NE,49,4.0,11.0,69,0.00,,OVC050,0.00,VWS V14.01,2013-03-10 15:46:00,
2013-03-10 11:51:00,70.8,58.9,30.20,NNE,31,4.0,11.0,66,0.00,,OVC050,0.00,VWS V14.01,2013-03-10 15:51:00,
2013-03-10 11:56:00,70.8,58.9,30.19,East,87,7.0,11.0,66,0.00,,OVC050,0.00,VWS V14.01,2013-03-10 15:56:00,
2013-03-10 12:01:00,71.0,59.1,30.18,ENE,69,5.0,7.0,66,0.00,,SCT055,0.00,VWS V14.01,2013-03-10 16:01:00,
2013-03-10 12:06:00,71.3,58.9,30.19,East,99,5.0,12.0,65,0.00,,SCT055,0.00,VWS V14.01,2013-03-10 16:06:00,
2013-03-10 12:11:00,71.8,59.4,30.18,East,90,6.0,13.0,65,0.00,,SCT055,0.00,VWS V14.01,2013-03-10 16:11:00,
2013-03-10 12:16:00,72.0,57.8,30.18,ENE,76,3.0,13.0,61,0.00,,SCT055,0.00,VWS V14.01,2013-03-10 16:16:00,
2013-03-10 12:21:00,71.8,58.5,30.18,NE,49,8.0,13.0,63,0.00,,SCT055,0.00,VWS V14.01,2013-03-10 16:21:00,
2013-03-10 12:26:00,72.2,58.5,30.17,ENE,63,10.0,13.0,62,0.00,,SCT055,0.00,VWS V14.01,2013-03-10 16:26:00,
2013-03-10 12:31:00,72.6,58.8,30.18,NE,46,11.0,15.0,62,0.00,,SCT055,0.00,VWS V14.01,2013-03-10 16:31:00,
2013-03-10 12:36:00,72.6,58.4,30.16,East,92,9.0,15.0,61,0.00,,SCT055,0.00,VWS V14.01,2013-03-10 16:36:00,
2013-03-10 12:41:00,72.6,57.9,30.16,East,85,6.0,15.0,60,0.00,,SCT055,0.00,VWS V14.01,2013-03-10 16:41:00,
2013-03-10 12:46:00,72.4,57.3,30.16,NE,47,4.0,15.0,59,0.00,,SCT055,0.00,VWS V14.01,2013-03-10 16:46:00,
2013-03-10 12:51:00,72.5,57.8,30.16,ENE,67,8.0,15.0,60,0.00,,SCT055,0.00,VWS V14.01,2013-03-10 16:51:00,
2013-03-10 12:56:00,72.4,57.3,30.15,East,91,8.0,15.0,59,0.00,,SCT055,0.00,VWS V14.01,2013-03-10 16:56:00,
2013-03-10 13:01:00,72.4,58.2,30.15,NE,49,5.0,10.0,61,0.00,,CLR,0.00,VWS V14.01,2013-03-10 17:01:00,
2013-03-10 13:06:00,72.5,57.8,30.15,ENE,70,7.0,13.0,60,0.00,,CLR,0.00,VWS V14.01,2013-03-10 17:06:00,
2013-03-10 13:11:00,72.6,57.5,30.15,NE,48,13.0,15.0,59,0.00,,CLR,0.00,VWS V14.01,2013-03-10 17:11:00,
2013-03-10 13:16:00,72.7,58.9,30.15,NE,52,7.0,15.0,62,0.00,,CLR,0.00,VWS V14.01,2013-03-10 17:16:00,
2013-03-10 13:21:00,72.9,59.1,30.15,ESE,116,6.0,15.0,62,0.00,,CLR,0.00,VWS V14.01,2013-03-10 17:21:00,
2013-03-10 13:26:00,73.3,58.1,30.15,ENE,66,4.0,15.0,59,0.00,,CLR,0.00,VWS V14.01,2013-03-10 17:26:00,
2013-03-10 13:31:00,73.3,58.1,30.16,East,83,9.0,15.0,59,0.00,,CLR,0.00,VWS V14.01,2013-03-10 17:31:00,
2013-03-10 13:36:00,73.4,58.2,30.16,ENE,61,4.0,15.0,59,0.00,,CLR,0.00,VWS V14.01,2013-03-10 17:36:00,
2013-03-10 13:41:00,73.8,58.6,30.15,NE,53,7.0,15.0,59,0.00,,CLR,0.00,VWS V14.01,2013-03-10 17:41:00,
2013-03-10 13:46:00,73.7,58.0,30.15,East,84,11.0,15.0,58,0.00,,CLR,0.00,VWS V14.01,2013-03-10 17:46:00,
2013-03-10 13:51:00,73.6,57.9,30.15,ENE,68,5.0,15.0,58,0.00,,CLR,0.00,VWS V14.01,2013-03-10 17:51:00,
2013-03-10 13:56:00,73.3,57.7,30.14,NNE,27,6.0,15.0,58,0.00,,CLR,0.00,VWS V14.01,2013-03-10 17:56:00,
2013-03-10 14:01:00,73.0,57.4,30.14,ENE,66,7.0,13.0,58,0.00,,CLR,0.00,VWS V14.01,2013-03-10 18:01:00,
2013-03-10 14:06:00,72.9,58.2,30.14,East,88,7.0,13.0,60,0.00,,CLR,0.00,VWS V14.01,2013-03-10 18:06:00,
2013-03-10 14:11:00,73.4,61.8,30.14,ENE,65,6.0,13.0,67,0.00,,CLR,0.00,VWS V14.01,2013-03-10 18:11:00,
2013-03-10 14:16:00,73.5,60.2,30.13,ENE,67,3.0,15.0,63,0.00,,CLR,0.00,VWS V14.01,2013-03-10 18:16:00,
2013-03-10 14:21:00,73.7,60.8,30.14,ENE,71,13.0,19.0,64,0.00,,CLR,0.00,VWS V14.01,2013-03-10 18:21:00,
2013-03-10 14:26:00,73.5,59.7,30.13,East,90,10.0,19.0,62,0.00,,CLR,0.00,VWS V14.01,2013-03-10 18:26:00,
2013-03-10 14:31:00,73.2,59.4,30.14,East,95,6.0,19.0,62,0.00,,CLR,0.00,VWS V14.01,2013-03-10 18:31:00,
2013-03-10 14:36:00,73.1,59.3,30.13,ESE,104,9.0,19.0,62,0.00,,CLR,0.00,VWS V14.01,2013-03-10 18:36:00,
2013-03-10 14:41:00,72.9,58.7,30.13,East,79,9.0,19.0,61,0.00,,CLR,0.00,VWS V14.01,2013-03-10 18:41:00,
2013-03-10 14:46:00,72.8,59.9,30.13,ENE,70,8.0,19.0,64,0.00,,CLR,0.00,VWS V14.01,2013-03-10 18:46:00,
2013-03-10 14:51:00,72.9,58.7,30.13,East,79,7.0,19.0,61,0.00,,CLR,0.00,VWS V14.01,2013-03-10 18:51:00,
2013-03-10 14:56:00,73.2,58.5,30.13,SE,138,12.0,19.0,60,0.00,,CLR,0.00,VWS V14.01,2013-03-10 18:56:00,
2013-03-10 15:01:00,73.7,59.4,30.13,ESE,111,10.0,14.0,61,0.00,,BKN050,0.00,VWS V14.01,2013-03-10 19:01:00,
2013-03-10 15:06:00,74.0,59.2,30.13,ESE,112,9.0,16.0,60,0.00,,BKN050,0.00,VWS V14.01,2013-03-10 19:06:00,
2013-03-10 15:11:00,73.7,59.0,30.14,ESE,114,6.0,16.0,60,0.00,,BKN050,0.00,VWS V14.01,2013-03-10 19:11:00,
2013-03-10 15:16:00,73.7,58.5,30.14,East,92,8.0,19.0,59,0.00,,BKN050,0.00,VWS V14.01,2013-03-10 19:16:00,
2013-03-10 15:21:00,73.7,59.0,30.14,ENE,67,8.0,19.0,60,0.00,,BKN050,0.00,VWS V14.01,2013-03-10 19:21:00,
2013-03-10 15:26:00,73.7,58.5,30.14,ESE,110,5.0,19.0,59,0.00,,BKN050,0.00,VWS V14.01,2013-03-10 19:26:00,
2013-03-10 15:31:00,73.3,58.6,30.14,East,97,8.0,19.0,60,0.00,,BKN050,0.00,VWS V14.01,2013-03-10 19:31:00,
2013-03-10 15:36:00,72.9,58.2,30.14,East,96,6.0,19.0,60,0.00,,BKN050,0.00,VWS V14.01,2013-03-10 19:36:00,
2013-03-10 15:41:00,72.7,58.5,30.13,East,90,5.0,19.0,61,0.00,,BKN050,0.00,VWS V14.01,2013-03-10 19:41:00,
2013-03-10 15:46:00,73.0,58.8,30.13,NE,45,5.0,19.0,61,0.00,,BKN050,0.00,VWS V14.01,2013-03-10 19:46:00,
2013-03-10 15:52:00,73.1,58.9,30.13,East,101,10.0,19.0,61,0.00,,BKN050,0.00,VWS V14.01,2013-03-10 19:52:00,
2013-03-10 15:57:00,73.2,59.4,30.13,ENE,77,3.0,19.0,62,0.00,,BKN050,0.00,VWS V14.01,2013-03-10 19:57:00,
2013-03-10 16:02:00,73.0,59.2,30.14,ESE,121,4.0,12.0,62,0.00,,BKN050,0.00,VWS V14.01,2013-03-10 20:02:00,
2013-03-10 16:07:00,72.5,59.6,30.13,NE,43,6.0,12.0,64,0.00,,BKN050,0.00,VWS V14.01,2013-03-10 20:07:00,
2013-03-10 16:12:00,72.1,58.4,30.13,ENE,61,6.0,18.0,62,0.00,,BKN050,0.00,VWS V14.01,2013-03-10 20:12:00,
2013-03-10 16:17:00,72.1,59.3,30.14,East,83,6.0,18.0,64,0.00,,BKN050,0.00,VWS V14.01,2013-03-10 20:17:00,
2013-03-10 16:22:00,72.2,58.9,30.13,ENE,59,3.0,18.0,63,0.00,,BKN050,0.00,VWS V14.01,2013-03-10 20:22:00,
2013-03-10 16:27:00,72.0,58.7,30.13,ENE,57,7.0,18.0,63,0.00,,BKN050,0.00,VWS V14.01,2013-03-10 20:27:00,
2013-03-10 16:32:00,71.8,59.0,30.13,ESE,117,10.0,18.0,64,0.00,,BKN050,0.00,VWS V14.01,2013-03-10 20:32:00,
2013-03-10 16:37:00,72.1,58.8,30.13,ENE,63,6.0,18.0,63,0.00,,BKN050,0.00,VWS V14.01,2013-03-10 20:37:00,
2013-03-10 16:42:00,71.9,59.1,30.12,ESE,123,3.0,18.0,64,0.00,,BKN050,0.00,VWS V14.01,2013-03-10 20:42:00,
2013-03-10 16:47:00,71.9,58.2,30.13,ENE,75,3.0,18.0,62,0.00,,BKN050,0.00,VWS V14.01,2013-03-10 20:47:00,
2013-03-10 16:52:00,71.8,58.5,30.12,ENE,75,4.0,18.0,63,0.00,,BKN050,0.00,VWS V14.01,2013-03-10 20:52:00,
2013-03-10 16:57:00,71.8,58.5,30.12,ESE,110,6.0,18.0,63,0.00,,BKN050,0.00,VWS V14.01,2013-03-10 20:57:00,
2013-03-10 17:02:00,71.9,58.6,30.13,East,92,4.0,14.0,63,0.00,,BKN055,0.00,VWS V14.01,2013-03-10 21:02:00,
2013-03-10 17:07:00,71.8,58.5,30.13,SE,134,3.0,14.0,63,0.00,,BKN055,0.00,VWS V14.01,2013-03-10 21:07:00,
2013-03-10 17:12:00,71.5,57.8,30.12,East,86,4.0,14.0,62,0.00,,BKN055,0.00,VWS V14.01,2013-03-10 21:12:00,
2013-03-10 17:17:00,71.3,58.1,30.13,ENE,69,1.0,14.0,63,0.00,,BKN055,0.00,VWS V14.01,2013-03-10 21:17:00,
2013-03-10 17:22:00,70.9,63.7,30.13,East,86,5.0,14.0,78,0.00,,BKN055,0.00,VWS V14.01,2013-03-10 21:22:00,
2013-03-10 17:27:00,70.8,58.0,30.12,ESE,115,2.0,14.0,64,0.00,,BKN055,0.00,VWS V14.01,2013-03-10 21:27:00,
2013-03-10 17:32:00,70.9,58.1,30.12,East,95,3.0,14.0,64,0.00,,BKN055,0.00,VWS V14.01,2013-03-10 21:32:00,
2013-03-10 17:37:00,70.9,59.4,30.12,ENE,57,8.0,14.0,67,0.00,,BKN055,0.00,VWS V14.01,2013-03-10 21:37:00,
2013-03-10 17:42:00,71.0,58.7,30.12,ESE,116,7.0,14.0,65,0.00,,BKN055,0.00,VWS V14.01,2013-03-10 21:42:00,
2013-03-10 17:47:00,71.2,58.8,30.12,ESE,105,2.0,14.0,65,0.00,,BKN055,0.00,VWS V14.01,2013-03-10 21:47:00,
2013-03-10 17:52:00,71.4,58.6,30.12,ENE,78,4.0,14.0,64,0.00,,BKN055,0.00,VWS V14.01,2013-03-10 21:52:00,
2013-03-10 17:57:00,71.5,58.7,30.12,ESE,109,4.0,14.0,64,0.00,,BKN055,0.00,VWS V14.01,2013-03-10 21:57:00,
2013-03-10 18:02:00,71.6,58.8,30.12,ESE,116,9.0,10.0,64,0.00,,CLR,0.00,VWS V14.01,2013-03-10 22:02:00,
2013-03-10 18:07:00,71.5,58.7,30.12,East,90,6.0,10.0,64,0.00,,CLR,0.00,VWS V14.01,2013-03-10 22:07:00,
2013-03-10 18:12:00,71.0,59.5,30.12,ESE,111,6.0,10.0,67,0.00,,CLR,0.00,VWS V14.01,2013-03-10 22:12:00,
2013-03-10 18:17:00,70.8,59.3,30.12,ENE,73,6.0,11.0,67,0.00,,CLR,0.00,VWS V14.01,2013-03-10 22:17:00,
2013-03-10 18:22:00,70.7,59.6,30.12,ENE,69,5.0,11.0,68,0.00,,CLR,0.00,VWS V14.01,2013-03-10 22:22:00,
2013-03-10 18:27:00,70.6,60.0,30.12,East,84,2.0,11.0,69,0.00,,CLR,0.00,VWS V14.01,2013-03-10 22:27:00,
2013-03-10 18:32:00,70.5,60.7,30.13,ENE,62,4.0,11.0,71,0.00,,CLR,0.00,VWS V14.01,2013-03-10 22:32:00,
2013-03-10 18:38:00,70.3,59.2,30.13,East,88,4.0,11.0,68,0.00,,CLR,0.00,VWS V14.01,2013-03-10 22:38:00,
2013-03-10 18:43:00,70.2,59.6,30.13,East,85,5.0,11.0,69,0.00,,CLR,0.00,VWS V14.01,2013-03-10 22:43:00,
2013-03-10 18:48:00,70.2,59.6,30.13,East,92,2.0,11.0,69,0.00,,CLR,0.00,VWS V14.01,2013-03-10 22:48:00,
2013-03-10 18:53:00,70.0,59.8,30.13,ESE,106,5.0,11.0,70,0.00,,CLR,0.00,VWS V14.01,2013-03-10 22:53:00,
2013-03-10 18:58:00,69.9,59.7,30.13,East,84,2.0,11.0,70,0.00,,CLR,0.00,VWS V14.01,2013-03-10 22:58:00,
2013-03-10 19:03:00,69.7,59.5,30.13,ESE,118,5.0,6.0,70,0.00,,CLR,0.00,VWS V14.01,2013-03-10 23:03:00,
2013-03-10 19:08:00,69.6,59.0,30.13,ESE,115,3.0,7.0,69,0.00,,CLR,0.00,VWS V14.01,2013-03-10 23:08:00,
2013-03-10 19:13:00,69.6,58.6,30.14,ESE,104,3.0,7.0,68,0.00,,CLR,0.00,VWS V14.01,2013-03-10 23:13:00,
2013-03-10 19:18:00,69.4,58.4,30.13,ESE,117,0.0,7.0,68,0.00,,CLR,0.00,VWS V14.01,2013-03-10 23:18:00,
2013-03-10 19:23:00,69.1,58.5,30.13,ENE,60,0.0,7.0,69,0.00,,CLR,0.00,VWS V14.01,2013-03-10 23:23:00,
2013-03-10 19:28:00,68.9,58.7,30.12,ENE,75,6.0,7.0,70,0.00,,CLR,0.00,VWS V14.01,2013-03-10 23:28:00,
2013-03-10 19:33:00,68.7,58.9,30.12,ENE,73,0.0,7.0,71,0.00,,CLR,0.00,VWS V14.01,2013-03-10 23:33:00,
2013-03-10 19:38:00,68.5,59.1,30.12,ENE,68,1.0,7.0,72,0.00,,CLR,0.00,VWS V14.01,2013-03-10 23:38:00,
2013-03-10 19:43:00,68.3,59.3,30.12,East,92,3.0,7.0,73,0.00,,CLR,0.00,VWS V14.01,2013-03-10 23:43:00,
2013-03-10 19:48:00,68.2,59.6,30.12,ESE,104,3.0,7.0,74,0.00,,CLR,0.00,VWS V14.01,2013-03-10 23:48:00,
2013-03-10 19:53:00,68.1,59.5,30.13,ENE,77,4.0,7.0,74,0.00,,CLR,0.00,VWS V14.01,2013-03-10 23:53:00,
2013-03-10 19:58:00,68.1,59.5,30.14,NE,54,3.0,9.0,74,0.00,,CLR,0.00,VWS V14.01,2013-03-10 23:58:00,
2013-03-10 20:03:00,68.0,59.4,30.14,NNE,24,3.0,6.0,74,0.00,,CLR,0.00,VWS V14.01,2013-03-11 00:03:00,
2013-03-10 20:08:00,68.0,59.4,30.14,East,86,0.0,6.0,74,0.00,,CLR,0.00,VWS V14.01,2013-03-11 00:08:00,
2013-03-10 20:13:00,68.0,59.8,30.13,East,90,0.0,6.0,75,0.00,,CLR,0.00,VWS V14.01,2013-03-11 00:13:00,
2013-03-10 20:18:00,67.9,59.3,30.13,ENE,73,2.0,7.0,74,0.00,,CLR,0.00,VWS V14.01,2013-03-11 00:18:00,
2013-03-10 20:23:00,67.8,59.2,30.14,East,90,4.0,7.0,74,0.00,,CLR,0.00,VWS V14.01,2013-03-11 00:23:00,
2013-03-10 20:28:00,67.7,59.1,30.14,East,81,5.0,7.0,74,0.00,,CLR,0.00,VWS V14.01,2013-03-11 00:28:00,
2013-03-10 20:33:00,67.7,59.5,30.14,ENE,62,4.0,7.0,75,0.00,,CLR,0.00,VWS V14.01,2013-03-11 00:33:00,
2013-03-10 20:38:00,67.7,59.1,30.14,East,86,3.0,10.0,74,0.00,,CLR,0.00,VWS V14.01,2013-03-11 00:38:00,
2013-03-10 20:43:00,67.6,59.0,30.14,East,93,5.0,10.0,74,0.00,,CLR,0.00,VWS V14.01,2013-03-11 00:43:00,
2013-03-10 20:48:00,67.6,59.0,30.14,ESE,107,0.0,10.0,74,0.00,,CLR,0.00,VWS V14.01,2013-03-11 00:48:00,
2013-03-10 20:53:00,67.5,58.9,30.14,East,91,0.0,10.0,74,0.00,,CLR,0.00,VWS V14.01,2013-03-11 00:53:00,
2013-03-10 20:58:00,67.5,58.9,30.15,East,95,3.0,10.0,74,0.00,,CLR,0.00,VWS V14.01,2013-03-11 00:58:00,
2013-03-10 21:03:00,67.4,58.8,30.15,ENE,67,0.0,5.0,74,0.00,,CLR,0.00,VWS V14.01,2013-03-11 01:03:00,
2013-03-10 21:08:00,67.4,58.8,30.14,ENE,71,2.0,5.0,74,0.00,,CLR,0.00,VWS V14.01,2013-03-11 01:08:00,
2013-03-10 21:13:00,67.3,59.1,30.15,ENE,70,0.0,5.0,75,0.00,,CLR,0.00,VWS V14.01,2013-03-11 01:13:00,
2013-03-10 21:18:00,67.3,59.1,30.15,ENE,70,0.0,5.0,75,0.00,,CLR,0.00,VWS V14.01,2013-03-11 01:18:00,
2013-03-10 21:23:00,67.3,58.7,30.15,East,87,2.0,7.0,74,0.00,,CLR,0.00,VWS V14.01,2013-03-11 01:23:00,
2013-03-10 21:28:00,67.3,58.7,30.15,SE,125,1.0,7.0,74,0.00,,CLR,0.00,VWS V14.01,2013-03-11 01:28:00,
2013-03-10 21:33:00,67.3,59.1,30.15,East,81,3.0,7.0,75,0.00,,CLR,0.00,VWS V14.01,2013-03-11 01:33:00,
2013-03-10 21:38:00,67.2,58.6,30.15,ESE,112,5.0,7.0,74,0.00,,CLR,0.00,VWS V14.01,2013-03-11 01:38:00,
2013-03-10 21:43:00,67.1,58.5,30.16,East,82,2.0,7.0,74,0.00,,CLR,0.00,VWS V14.01,2013-03-11 01:43:00,
2013-03-10 21:48:00,67.1,58.9,30.16,SE,124,3.0,7.0,75,0.00,,CLR,0.00,VWS V14.01,2013-03-11 01:48:00,
2013-03-10 21:53:00,67.0,59.6,30.15,ENE,74,3.0,7.0,77,0.00,,CLR,0.00,VWS V14.01,2013-03-11 01:53:00,
2013-03-10 21:58:00,67.0,58.5,30.15,East,92,2.0,7.0,74,0.00,,CLR,0.00,VWS V14.01,2013-03-11 01:58:00,
2013-03-10 22:03:00,67.0,58.5,30.15,ESE,110,0.0,5.0,74,0.00,,CLR,0.00,VWS V14.01,2013-03-11 02:03:00,
2013-03-10 22:08:00,67.0,58.8,30.16,ENE,75,3.0,6.0,75,0.00,,CLR,0.00,VWS V14.01,2013-03-11 02:08:00,
2013-03-10 22:13:00,67.0,59.2,30.15,East,94,0.0,6.0,76,0.00,,CLR,0.00,VWS V14.01,2013-03-11 02:13:00,
2013-03-10 22:18:00,67.0,58.8,30.15,East,93,3.0,6.0,75,0.00,,CLR,0.00,VWS V14.01,2013-03-11 02:18:00,
2013-03-10 22:23:00,66.9,58.3,30.15,ENE,71,0.0,9.0,74,0.00,,CLR,0.00,VWS V14.01,2013-03-11 02:23:00,
2013-03-10 22:28:00,66.8,57.9,30.15,East,101,2.0,9.0,73,0.00,,CLR,0.00,VWS V14.01,2013-03-11 02:28:00,
2013-03-10 22:33:00,66.8,57.9,30.15,East,86,3.0,9.0,73,0.00,,CLR,0.00,VWS V14.01,2013-03-11 02:33:00,
2013-03-10 22:38:00,66.8,57.9,30.15,East,93,2.0,9.0,73,0.00,,CLR,0.00,VWS V14.01,2013-03-11 02:38:00,
2013-03-10 22:43:00,66.8,57.9,30.16,SE,132,0.0,9.0,73,0.00,,CLR,0.00,VWS V14.01,2013-03-11 02:43:00,
2013-03-10 22:48:00,66.8,57.9,30.15,East,84,0.0,9.0,73,0.00,,CLR,0.00,VWS V14.01,2013-03-11 02:48:00,
2013-03-10 22:53:00,66.8,57.9,30.16,East,95,4.0,9.0,73,0.00,,CLR,0.00,VWS V14.01,2013-03-11 02:53:00,
2013-03-10 22:58:00,66.8,57.9,30.16,East,95,3.0,9.0,73,0.00,,CLR,0.00,VWS V14.01,2013-03-11 02:58:00,
2013-03-10 23:03:00,66.9,58.3,30.16,East,80,2.0,5.0,74,0.00,,FEW050,0.00,VWS V14.01,2013-03-11 03:03:00,
2013-03-10 23:08:00,66.8,58.3,30.16,East,89,1.0,6.0,74,0.00,,FEW050,0.00,VWS V14.01,2013-03-11 03:08:00,
2013-03-10 23:13:00,66.8,59.0,30.16,East,98,2.0,6.0,76,0.00,,FEW050,0.00,VWS V14.01,2013-03-11 03:13:00,
2013-03-10 23:18:00,66.8,58.6,30.16,ESE,110,3.0,6.0,75,0.00,,FEW050,0.00,VWS V14.01,2013-03-11 03:18:00,
2013-03-10 23:24:00,66.7,58.5,30.15,ENE,68,2.0,6.0,75,0.00,,FEW050,0.00,VWS V14.01,2013-03-11 03:24:00,
2013-03-10 23:29:00,66.7,58.5,30.15,ENE,60,2.0,6.0,75,0.00,,FEW050,0.00,VWS V14.01,2013-03-11 03:29:00,
2013-03-10 23:34:00,66.7,58.5,30.15,ESE,109,4.0,6.0,75,0.00,,FEW050,0.00,VWS V14.01,2013-03-11 03:34:00,
2013-03-10 23:39:00,66.7,58.5,30.15,ENE,73,4.0,6.0,75,0.00,,FEW050,0.00,VWS V14.01,2013-03-11 03:39:00,
2013-03-10 23:44:00,66.6,58.1,30.15,SE,129,2.0,7.0,74,0.00,,FEW050,0.00,VWS V14.01,2013-03-11 03:44:00,
2013-03-10 23:49:00,66.6,58.1,30.16,East,100,2.0,8.0,74,0.00,,FEW050,0.00,VWS V14.01,2013-03-11 03:49:00,
2013-03-10 23:54:00,66.6,58.1,30.15,East,98,4.0,8.0,74,0.00,,FEW050,0.00,VWS V14.01,2013-03-11 03:54:00,
2013-03-10 23:59:00,66.7,58.2,30.15,ESE,105,5.0,8.0,74,0.00,,FEW050,0.00,VWS V14.01,2013-03-11 03:59:00,